Location: Twentynine Palms Airport
(34.1316°N, 115.9458°W)
Time: 13:53:07
(UTC-08:00)

Amateur Radio Satellites - All Passes

Search period start: 25 November 2014 13:23
Search period end: 26 November 2014 13:23
Location: Twentynine Palms Airport, 34.1316°N, 115.9458°W

Satellite Date Start Highest point End Downlink Frequencies (MHz)
Time Altitude Azimuth
AO-7 25 Nov 13:23:53 13:28:59 18° 55° (NE) 13:34:05 29.400- 29.500
Gurwin Techsat 1B 25 Nov 13:25:37 13:30:49 59° 74° (ENE) 13:36:02 435.225
Oscar 19 25 Nov 13:46:33 13:49:48 17° 266° (W) 13:53:05 437.125/150
AUBIESAT-1 25 Nov 13:48:03 13:52:30 35° 293° (WNW) 13:56:51 437.475
RS-15 25 Nov 13:48:08 13:55:16 20° 101° (E) 14:02:18 29.354- 29.394
M-CUBED/EXP-1 PRIME 25 Nov 13:53:04 13:57:18 29° 295° (WNW) 14:01:27 437.505
MaSat-1 25 Nov 13:53:34 13:55:51 19° 109° (ESE) 13:58:00 437.345
KKS-1 25 Nov 13:57:15 14:01:33 47° 100° (E) 14:05:49 437.445
HORYU 2 25 Nov 14:08:28 14:12:51 69° 75° (ENE) 14:17:16 437.375
ITUPSAT 1 25 Nov 14:17:53 14:21:28 21° 292° (WNW) 14:25:01 437.325
SWISSCUBE 25 Nov 14:29:52 14:32:29 15° 294° (WNW) 14:35:05 437.505
JAS-2 25 Nov 14:32:41 14:36:40 15° 58° (ENE) 14:40:41 435.910
ITAMSAT 1 25 Nov 14:39:01 14:41:45 14° 267° (W) 14:44:31 435.822/435.867
PHONESAT 2.4 25 Nov 14:45:15 14:48:57 74° 337° (NNW) 14:52:40 2401.200-2431.200
STARS 25 Nov 14:54:10 14:58:26 54° 286° (WNW) 15:02:43 437.465
YUBILEINY 25 Nov 14:56:06 15:03:10 29° 276° (W) 15:10:13 435.215
VERMONT LUNAR 25 Nov 14:58:46 15:02:16 47° 343° (NNW) 15:05:47 437.305
Gurwin Techsat 1B 25 Nov 15:08:27 15:11:06 14° 268° (W) 15:13:45 435.225
AO-7 25 Nov 15:12:22 15:20:39 89° 253° (WSW) 15:29:01 29.400- 29.500
MaSat-1 25 Nov 15:28:52 15:30:18 13° 298° (WNW) 15:31:41 437.345
O/OREOS (USA 219) 25 Nov 15:35:36 15:40:03 66° 69° (ENE) 15:44:30 437.305
KKS-1 25 Nov 15:35:40 15:37:45 13° 294° (WNW) 15:39:50 437.445
RS-15 25 Nov 15:55:08 16:06:11 84° 298° (WNW) 16:17:10 29.354- 29.394
JAS-2 25 Nov 16:12:55 16:20:24 82° 75° (ENE) 16:28:18 435.910
CUTE-I 25 Nov 16:15:09 16:19:01 21° 66° (ENE) 16:22:52 437.470
PHONESAT 2.4 25 Nov 16:24:44 16:28:05 31° 354° (N) 16:31:27 2401.200-2431.200
MOZHAYETS 4 25 Nov 16:34:51 16:39:30 67° 101° (E) 16:44:07
VERMONT LUNAR 25 Nov 16:38:01 16:41:13 28° 360° (N) 16:44:25 437.305
AO-7 25 Nov 17:10:20 17:14:18 14° 268° (W) 17:18:17 29.400- 29.500
Cubesat XI-IV 25 Nov 17:11:46 17:17:07 75° 75° (ENE) 17:22:30 437.490
CUTE-I 25 Nov 17:53:39 17:58:43 43° 261° (W) 18:03:49 437.470
PRISM 25 Nov 17:55:33 17:59:48 85° 283° (WNW) 18:04:00 437.425
JAS-2 25 Nov 18:01:32 18:06:06 17° 271° (W) 18:10:49 435.910
PCSat 25 Nov 18:01:50 18:05:46 21° 106° (ESE) 18:09:42 145.827
PHONESAT 2.4 25 Nov 18:03:58 18:07:26 35° 11° (N) 18:10:53 2401.200-2431.200
HO-68 25 Nov 18:05:15 18:08:02 13° 56° (NE) 18:10:48 435.675
RS-15 25 Nov 18:12:10 18:20:19 23° 323° (NW) 18:28:34 29.354- 29.394
CUBESAT XI-V 25 Nov 18:15:14 18:19:48 54° 100° (E) 18:24:19 437.345
MOZHAYETS 4 25 Nov 18:15:19 18:16:06 10° 295° (WNW) 18:16:52
VERMONT LUNAR 25 Nov 18:16:40 18:20:11 46° 17° (NNE) 18:23:41 437.305
STRAND 1 25 Nov 18:37:20 18:42:28 84° 103° (ESE) 18:47:33 437.568
GONETS M04 25 Nov 18:48:29 18:57:10 58° 80° (E) 19:05:44
AIST 1 25 Nov 18:53:09 18:57:19 44° 92° (E) 19:01:31
Cubesat XI-IV 25 Nov 18:56:37 18:57:40 11° 269° (W) 18:58:43 437.490
CANX-2 25 Nov 19:02:03 19:04:52 18° 69° (ENE) 19:07:42 2200.000
BEESAT 3 25 Nov 19:02:57 19:06:42 37° 113° (ESE) 19:10:31 437.485
COMPASS 1 25 Nov 19:07:54 19:09:54 13° 67° (ENE) 19:11:55 437.405
BEESAT 2 25 Nov 19:17:54 19:21:51 50° 115° (ESE) 19:25:53 435.950
GOMX 1 25 Nov 19:17:55 19:21:21 20° 70° (ENE) 19:24:38 467.674
CUTE 1.7 & AOD 2 25 Nov 19:35:28 19:39:24 40° 74° (ENE) 19:43:21 437.475
PHONESAT 2.4 25 Nov 19:42:43 19:46:25 72° 207° (SSW) 19:50:06 2401.200-2431.200
BRITE-PL 25 Nov 19:43:28 19:48:28 54° 75° (ENE) 19:53:05 437.365/2234.400
PCSat 25 Nov 19:43:40 19:48:48 44° 300° (WNW) 19:53:58 145.827
HO-68 25 Nov 19:47:24 19:54:34 79° 73° (ENE) 20:01:46 435.675
AIST 2 25 Nov 19:50:59 19:55:05 57° 115° (ESE) 19:59:16 435.215
CUBESAT XI-V 25 Nov 19:54:41 19:56:44 13° 294° (WNW) 19:58:46 437.345
VERMONT LUNAR 25 Nov 19:55:14 19:58:38 39° 212° (SSW) 20:02:02 437.305
UKube-1 25 Nov 20:00:37 20:04:03 23° 69° (ENE) 20:07:30 .
FUNcube-1 25 Nov 20:05:48 20:06:51 11° 67° (ENE) 20:07:55 145.935
SEEDS 25 Nov 20:08:33 20:12:43 89° 258° (WSW) 20:16:56 437.485
Oscar 11 25 Nov 20:11:36 20:15:28 33° 72° (ENE) 20:19:21 145.826/435.025
DOVE 4 25 Nov 20:13:33 20:18:10 60° 76° (ENE) 20:22:32 437.250
AAUSAT CUBESAT 2 25 Nov 20:25:55 20:30:03 75° 259° (WSW) 20:34:13 437.432
CUBEBUG 2 25 Nov 20:27:44 20:31:27 29° 72° (ENE) 20:35:05 437.445
UWE-3 25 Nov 20:28:40 20:32:10 25° 71° (ENE) 20:35:37 435.000/436.395/437.385
DELFI C3 25 Nov 20:32:30 20:36:24 49° 75° (ENE) 20:40:21 145.870
AIST 1 25 Nov 20:33:20 20:35:12 12° 287° (WNW) 20:37:04
DX 1 25 Nov 20:34:55 20:39:14 61° 75° (ENE) 20:43:34 434.975-435.025
CANX-2 25 Nov 20:36:50 20:40:33 30° 263° (W) 20:44:18 2200.000
RS-15 25 Nov 20:38:01 20:39:02 10° 360° (N) 20:40:03 29.354- 29.394
50 SAT 25 Nov 20:40:52 20:42:52 14° 68° (ENE) 20:44:52 437.505
COMPASS 1 25 Nov 20:41:20 20:45:15 40° 261° (W) 20:49:12 437.405
BEESAT 3 25 Nov 20:42:17 20:45:03 17° 309° (NW) 20:47:51 437.485
GONETS M04 25 Nov 20:46:30 20:53:17 26° 277° (W) 21:00:04
HUMSAT D 25 Nov 20:49:20 20:52:30 22° 70° (ENE) 20:55:39 437.325/437.525
CINEMA 3 25 Nov 20:51:14 20:55:42 84° 258° (WSW) 21:00:00 145.822/145.860
GOMX 1 25 Nov 20:54:49 20:59:15 34° 262° (W) 21:03:27 467.674
BEESAT 2 25 Nov 20:58:17 21:00:26 14° 311° (NW) 21:02:36 435.950
ZACube-1 25 Nov 21:03:29 21:07:38 57° 75° (ENE) 21:11:44 437.345
VELOX 1 25 Nov 21:04:04 21:08:10 37° 72° (ENE) 21:12:17 145.980
ESTCUBE 1 25 Nov 21:04:08 21:06:18 13° 66° (ENE) 21:08:28 437.505/2401.250
CUTE 1.7 & AOD 2 25 Nov 21:13:32 21:15:29 13° 267° (W) 21:17:26 437.475
PHONESAT 2.4 25 Nov 21:23:11 21:24:46 12° 220° (SW) 21:26:21 2401.200-2431.200
BRITE-PL 25 Nov 21:24:44 21:27:06 13° 266° (W) 21:29:24 437.365/2234.400
AISAT 25 Nov 21:29:47 21:34:16 77° 76° (ENE) 21:38:45 437.250
AIST 2 25 Nov 21:32:01 21:34:04 13° 312° (NW) 21:36:08 435.215
UKube-1 25 Nov 21:36:30 21:40:05 25° 263° (W) 21:43:41 .
FUNcube-1 25 Nov 21:38:38 21:42:45 51° 260° (W) 21:46:50 145.935
HO-68 25 Nov 21:38:55 21:42:51 15° 268° (W) 21:46:48 435.675
NANOSAT C BR1 25 Nov 21:41:32 21:44:07 16° 94° (E) 21:46:41 145.865
CUBEBUG 1 25 Nov 21:43:49 21:47:51 35° 72° (ENE) 21:51:54 437.445
TIGRISAT 25 Nov 21:47:05 21:50:59 29° 97° (E) 21:54:56 435.000
Oscar 11 25 Nov 21:48:59 21:51:41 16° 266° (W) 21:54:25 145.826/435.025
QB50P1 25 Nov 21:50:53 21:54:04 21° 96° (E) 21:57:14 145.935-145.965
JUGNU 25 Nov 21:51:29 21:52:50 11° 164° (SSE) 21:54:10 437.505
UNISAT 6 25 Nov 22:00:21 22:04:37 43° 99° (E) 22:08:57 437.425
ISS 25 Nov 22:01:37 22:04:39 36° 132° (SE) 22:07:41 145.825
BUGSAT 1 25 Nov 22:02:24 22:05:35 22° 96° (E) 22:08:44 437.445
CUBEBUG 2 25 Nov 22:05:10 22:08:09 18° 265° (W) 22:11:05 437.445
UWE-3 25 Nov 22:05:26 22:08:39 21° 264° (W) 22:11:50 435.000/436.395/437.385
50 SAT 25 Nov 22:14:05 22:17:50 37° 261° (W) 22:21:35 437.505
POPSAT HIP 1 25 Nov 22:15:00 22:18:59 41° 99° (E) 22:22:57 437.405
HUMSAT D 25 Nov 22:24:50 22:28:11 23° 264° (W) 22:31:31 437.325/437.525
ANTELSAT 25 Nov 22:28:55 22:33:25 86° 283° (WNW) 22:37:59 437.575/2403.000
ESTCUBE 1 25 Nov 22:38:18 22:42:42 50° 260° (W) 22:47:08 437.505/2401.250
VELOX 1 25 Nov 22:42:02 22:44:51 16° 266° (W) 22:47:39 145.980
POLYITAN 1 25 Nov 22:48:18 22:52:31 73° 284° (WNW) 22:56:44 437.675
RS-15 25 Nov 22:49:37 22:57:55 23° 37° (NE) 23:06:24 29.354- 29.394
QB50P2 25 Nov 22:50:23 22:54:36 69° 284° (WNW) 22:58:47 145.880/145.840
DUCHIFAT 1 25 Nov 22:56:34 23:00:43 58° 285° (WNW) 23:04:50 145.980
TISAT 1 25 Nov 22:58:40 23:02:53 62° 75° (ENE) 23:07:06 437.305
AUBIESAT-1 25 Nov 23:00:59 23:03:17 15° 61° (ENE) 23:05:40 437.475
M-CUBED/EXP-1 PRIME 25 Nov 23:05:34 23:08:21 18° 62° (ENE) 23:11:18 437.505
SPROUT 25 Nov 23:08:03 23:12:21 69° 76° (ENE) 23:16:39 437.525
CUSAT 1 25 Nov 23:09:32 23:14:20 47° 81° (E) 23:20:39 437.405
NANOSAT C BR1 25 Nov 23:16:16 23:20:04 33° 288° (WNW) 23:23:51 145.865
CUBEBUG 1 25 Nov 23:21:24 23:24:17 17° 266° (W) 23:27:11 437.445
TIGRISAT 25 Nov 23:24:12 23:27:32 21° 290° (WNW) 23:30:54 435.000
QB50P1 25 Nov 23:26:24 23:29:54 26° 289° (WNW) 23:33:23 145.935-145.965
DANDE 25 Nov 23:34:47 23:39:33 69° 82° (E) 23:46:03 436.750
JUGNU 25 Nov 23:37:12 23:41:07 18° 173° (S) 23:45:03 437.505
BUGSAT 1 25 Nov 23:37:49 23:40:58 22° 290° (WNW) 23:44:06 437.445
UNISAT 6 25 Nov 23:38:32 23:41:03 15° 292° (WNW) 23:43:35 437.425
ISS 25 Nov 23:38:53 23:41:22 19° 327° (NNW) 23:43:50 145.825
ITUPSAT 1 25 Nov 23:43:10 23:47:09 27° 69° (ENE) 23:51:09 437.325
SRMSAT 25 Nov 23:48:47 23:51:36 14° 166° (SSE) 23:54:25 437.500
POPSAT HIP 1 25 Nov 23:52:24 23:54:30 14° 293° (WNW) 23:56:37 437.405
SWISSCUBE 25 Nov 23:53:39 23:58:03 38° 72° (ENE) 00:02:29 437.505
Oscar 19 26 Nov 00:21:27 00:25:24 22° 95° (E) 00:29:20 437.125/150
BEESAT 26 Nov 00:24:19 00:29:05 77° 76° (ENE) 00:33:53 436.000
AUBIESAT-1 26 Nov 00:34:07 00:37:49 40° 258° (WSW) 00:41:53 437.475
M-CUBED/EXP-1 PRIME 26 Nov 00:39:36 00:43:06 31° 259° (W) 00:46:55 437.505
KKS-1 26 Nov 00:52:25 00:56:12 28° 71° (ENE) 00:59:59 437.445
CUSAT 1 26 Nov 00:53:47 00:57:24 19° 266° (W) 01:01:40 437.405
RS-15 26 Nov 01:00:56 01:12:17 80° 61° (ENE) 01:24:09 29.354- 29.394
MaSat-1 26 Nov 01:09:47 01:11:16 15° 252° (WSW) 01:12:47 437.345
ITAMSAT 1 26 Nov 01:14:10 01:18:30 27° 97° (E) 01:22:48 435.822/435.867
ITUPSAT 1 26 Nov 01:20:53 01:24:55 27° 263° (W) 01:28:59 437.325
DANDE 26 Nov 01:21:15 01:23:01 12° 268° (W) 01:24:55 436.750
JUGNU 26 Nov 01:25:20 01:29:28 20° 184° (S) 01:33:38 437.505
SWISSCUBE 26 Nov 01:32:43 01:36:00 18° 265° (W) 01:39:18 437.505
SRMSAT 26 Nov 01:35:54 01:40:05 20° 176° (S) 01:44:17 437.500
Gurwin Techsat 1B 26 Nov 01:46:02 01:50:44 32° 97° (E) 01:55:25 435.225
STARS 26 Nov 01:47:29 01:51:53 82° 77° (ENE) 01:56:18 437.465
YUBILEINY 26 Nov 01:54:02 02:02:44 67° 92° (E) 02:11:25 435.215
Oscar 19 26 Nov 02:00:04 02:04:46 36° 289° (WNW) 02:09:28 437.125/150
HORYU 2 26 Nov 02:04:54 02:08:01 18° 95° (E) 02:11:07 437.375
KKS-1 26 Nov 02:29:23 02:32:47 21° 264° (W) 02:36:12 437.445
SO-50 26 Nov 02:52:12 02:56:37 69° 117° (ESE) 03:01:12 436.795
ITAMSAT 1 26 Nov 02:53:27 02:57:54 30° 291° (WNW) 03:02:20 435.822/435.867
JUGNU 26 Nov 03:15:00 03:17:49 14° 193° (SSW) 03:20:37 437.505
RS-15 26 Nov 03:15:16 03:23:29 24° 258° (WSW) 03:32:00 29.354- 29.394
AO-7 26 Nov 03:18:34 03:26:18 40° 100° (E) 03:33:58 29.400- 29.500
SRMSAT 26 Nov 03:24:36 03:28:37 19° 187° (S) 03:32:38 437.500
Gurwin Techsat 1B 26 Nov 03:26:10 03:30:31 27° 291° (WNW) 03:34:53 435.225
JAS-2 26 Nov 03:31:23 03:34:05 13° 87° (E) 03:36:39 435.910
MOZHAYETS 4 26 Nov 03:33:21 03:37:37 40° 73° (ENE) 03:41:56
HORYU 2 26 Nov 03:40:41 03:44:43 33° 288° (WNW) 03:48:44 437.375
BEESAT 2 26 Nov 03:43:21 03:45:11 13° 48° (NE) 03:47:00 435.950
YUBILEINY 26 Nov 03:53:39 04:00:09 23° 290° (WNW) 04:06:40 435.215
O/OREOS (USA 219) 26 Nov 04:08:01 04:09:34 12° 98° (E) 04:11:07 437.305
AIST 2 26 Nov 04:17:51 04:20:15 15° 49° (NE) 04:22:38 435.215
ISS 26 Nov 04:34:07 04:35:30 12° 28° (NNE) 04:36:53 145.825
PCSat 26 Nov 04:34:59 04:40:24 67° 63° (ENE) 04:45:45 145.827
SO-50 26 Nov 04:35:35 04:37:40 13° 314° (NW) 04:39:47 436.795
PRISM 26 Nov 04:42:52 04:46:48 42° 73° (ENE) 04:50:48 437.425
BEESAT 3 26 Nov 05:04:04 05:08:15 81° 243° (WSW) 05:12:22 437.485
AO-7 26 Nov 05:11:20 05:18:57 41° 296° (WNW) 05:26:33 29.400- 29.500
MOZHAYETS 4 26 Nov 05:12:14 05:14:59 16° 267° (W) 05:17:45
JAS-2 26 Nov 05:13:05 05:20:04 81° 285° (WNW) 05:26:09 435.910
CUBESAT XI-V 26 Nov 05:15:12 05:19:27 35° 72° (ENE) 05:23:43 437.345
SRMSAT 26 Nov 05:15:26 05:17:05 11° 196° (SSW) 05:18:43 437.500
BEESAT 2 26 Nov 05:19:42 05:23:50 59° 244° (WSW) 05:27:54 435.950
Cubesat XI-IV 26 Nov 05:33:15 05:38:15 40° 99° (E) 05:43:12 437.490
O/OREOS (USA 219) 26 Nov 05:44:06 05:48:27 49° 292° (WNW) 05:52:49 437.305
STRAND 1 26 Nov 05:49:23 05:54:32 82° 76° (ENE) 05:59:42 437.568
AIST 2 26 Nov 05:55:01 05:59:11 51° 245° (WSW) 06:03:16 435.215
GONETS M04 26 Nov 05:56:18 05:57:42 10° 76° (ENE) 05:59:07
ISS 26 Nov 06:09:14 06:12:32 86° 224° (SW) 06:15:50 145.825
CUTE-I 26 Nov 06:14:22 06:19:41 80° 285° (WNW) 06:24:58 437.470
PRISM 26 Nov 06:20:41 06:22:32 13° 267° (W) 06:24:23 437.425
PCSat 26 Nov 06:20:49 06:23:09 13° 257° (WSW) 06:25:28 145.827
AIST 1 26 Nov 06:41:44 06:46:05 70° 265° (W) 06:50:22
CUBESAT XI-V 26 Nov 06:53:34 06:56:55 19° 266° (W) 07:00:19 437.345
JAS-2 26 Nov 07:01:32 07:03:43 12° 304° (NW) 07:05:51 435.910
Cubesat XI-IV 26 Nov 07:14:05 07:18:01 21° 293° (WNW) 07:21:56 437.490
HO-68 26 Nov 07:21:18 07:25:44 17° 93° (E) 07:30:07 435.675
GONETS M04 26 Nov 07:44:08 07:52:53 75° 93° (E) 08:01:42
BRITE-PL 26 Nov 07:53:00 07:55:59 19° 96° (E) 07:59:00 437.365/2234.400
SEEDS 26 Nov 07:57:58 08:01:10 20° 95° (E) 08:04:21 437.485
AAUSAT CUBESAT 2 26 Nov 08:14:01 08:17:23 23° 96° (E) 08:20:46 437.432
DOVE 4 26 Nov 08:17:16 08:20:19 19° 96° (E) 08:23:26 437.250
CANX-2 26 Nov 08:25:36 08:29:51 58° 100° (E) 08:34:05 2200.000
DX 1 26 Nov 08:28:55 08:31:12 14° 94° (E) 08:33:28 434.975-435.025
COMPASS 1 26 Nov 08:29:01 08:33:02 40° 99° (E) 08:37:02 437.405
QB50P1 26 Nov 08:42:59 08:43:54 11° 66° (ENE) 08:44:48 145.935-145.965
TIGRISAT 26 Nov 08:43:54 08:46:34 16° 68° (ENE) 08:49:14 435.000
CINEMA 3 26 Nov 08:50:14 08:53:55 28° 97° (E) 08:57:42 145.822/145.860
BUGSAT 1 26 Nov 08:51:27 08:52:39 11° 66° (ENE) 08:53:52 437.445
UNISAT 6 26 Nov 08:56:55 09:00:20 24° 70° (ENE) 09:03:45 437.425
ZACube-1 26 Nov 08:57:24 08:59:48 15° 94° (E) 09:02:14 437.345
GOMX 1 26 Nov 08:59:53 09:04:04 89° 281° (W) 09:08:24 467.674
CUTE 1.7 & AOD 2 26 Nov 09:00:15 09:04:28 57° 285° (WNW) 09:08:41 437.475
POPSAT HIP 1 26 Nov 09:05:24 09:08:32 20° 69° (ENE) 09:11:40 437.405
HO-68 26 Nov 09:06:48 09:13:56 72° 288° (WNW) 09:21:02 435.675
ANTELSAT 26 Nov 09:24:52 09:29:01 52° 75° (ENE) 09:33:10 437.575/2403.000
AISAT 26 Nov 09:25:54 09:29:07 20° 95° (E) 09:32:19 437.250
UKube-1 26 Nov 09:27:19 09:31:39 72° 102° (ESE) 09:35:57 .
FUNcube-1 26 Nov 09:31:00 09:34:58 37° 99° (E) 09:38:59 145.935
BRITE-PL 26 Nov 09:31:03 09:34:29 26° 288° (WNW) 09:38:00 437.365/2234.400
SEEDS 26 Nov 09:33:20 09:36:56 27° 289° (WNW) 09:40:32 437.485
POLYITAN 1 26 Nov 09:38:03 09:42:11 51° 74° (ENE) 09:46:18 437.675
Oscar 11 26 Nov 09:38:20 09:42:40 69° 284° (WNW) 09:46:59 145.826/435.025
QB50P2 26 Nov 09:39:53 09:44:02 53° 75° (ENE) 09:48:11 145.880/145.840
GONETS M04 26 Nov 09:44:29 09:50:30 20° 291° (WNW) 09:56:35
DUCHIFAT 1 26 Nov 09:45:36 09:49:49 62° 75° (ENE) 09:54:01 145.980
AAUSAT CUBESAT 2 26 Nov 09:49:35 09:52:57 24° 289° (WNW) 09:56:20 437.432
DELFI C3 26 Nov 09:52:14 09:56:16 52° 285° (WNW) 10:00:17 145.870
DOVE 4 26 Nov 09:54:31 09:58:04 27° 288° (WNW) 10:01:43 437.250
UWE-3 26 Nov 09:57:51 10:02:08 83° 283° (WNW) 10:06:30 435.000/436.395/437.385
CUBEBUG 2 26 Nov 09:58:28 10:02:43 69° 284° (WNW) 10:07:04 437.445
50 SAT 26 Nov 09:58:39 10:02:27 37° 99° (E) 10:06:15 437.505
DX 1 26 Nov 10:03:31 10:07:35 40° 287° (WNW) 10:11:37 434.975-435.025
CANX-2 26 Nov 10:04:42 10:05:15 10° 294° (WNW) 10:05:48 2200.000
NANOSAT C BR1 26 Nov 10:05:03 10:09:18 74° 258° (WSW) 10:13:33 145.865
COMPASS 1 26 Nov 10:06:10 10:08:23 14° 292° (WNW) 10:10:37 437.405
HUMSAT D 26 Nov 10:12:16 10:16:26 71° 101° (ESE) 10:20:39 437.325/437.525
QB50P1 26 Nov 10:15:06 10:19:17 55° 260° (W) 10:23:28 145.935-145.965
TIGRISAT 26 Nov 10:19:11 10:23:03 33° 262° (W) 10:26:54 435.000
BUGSAT 1 26 Nov 10:23:30 10:27:40 53° 260° (W) 10:31:49 437.445
CINEMA 3 26 Nov 10:27:53 10:30:57 20° 290° (WNW) 10:34:06 145.822/145.860
ZACube-1 26 Nov 10:32:21 10:36:16 37° 287° (WNW) 10:40:16 437.345
UNISAT 6 26 Nov 10:33:39 10:37:02 23° 264° (W) 10:40:25 437.425
VELOX 1 26 Nov 10:34:55 10:39:17 62° 285° (WNW) 10:43:38 145.980
ESTCUBE 1 26 Nov 10:35:03 10:39:24 44° 99° (E) 10:43:42 437.505/2401.250
POPSAT HIP 1 26 Nov 10:40:37 10:44:15 27° 263° (W) 10:47:53 437.405
TISAT 1 26 Nov 10:49:30 10:51:30 13° 93° (E) 10:53:29 437.305
HO-68 26 Nov 10:58:31 11:00:22 11° 305° (NW) 11:02:14 435.675
SPROUT 26 Nov 11:00:07 11:02:46 16° 94° (E) 11:05:24 437.525
AISAT 26 Nov 11:01:54 11:05:44 30° 289° (WNW) 11:09:33 437.250
FUNcube-1 26 Nov 11:08:32 11:11:00 15° 292° (WNW) 11:13:31 145.935
CUBEBUG 1 26 Nov 11:12:42 11:17:01 66° 284° (WNW) 11:21:18 437.445
POLYITAN 1 26 Nov 11:17:35 11:18:22 10° 268° (W) 11:19:09 437.675
SO-50 26 Nov 11:27:38 11:31:40 25° 52° (NE) 11:35:42 436.795
Oscar 19 26 Nov 11:35:03 11:38:56 22° 68° (ENE) 11:42:49 437.125/150
50 SAT 26 Nov 11:35:19 11:37:25 14° 292° (WNW) 11:39:31 437.505
SWISSCUBE 26 Nov 11:59:44 12:01:58 13° 93° (E) 12:04:11 437.505
YUBILEINY 26 Nov 12:09:53 12:16:57 27° 72° (ENE) 12:23:56 435.215
ESTCUBE 1 26 Nov 12:13:23 12:15:51 15° 294° (WNW) 12:18:18 437.505/2401.250
AUBIESAT-1 26 Nov 12:20:35 12:24:35 25° 100° (E) 12:28:27 437.475
CUSAT 1 26 Nov 12:20:49 12:23:38 69° 98° (E) 12:26:13 437.405
TISAT 1 26 Nov 12:23:33 12:27:29 39° 287° (WNW) 12:31:23 437.305
M-CUBED/EXP-1 PRIME 26 Nov 12:25:53 12:30:16 31° 101° (E) 12:34:29 437.505
ITAMSAT 1 26 Nov 12:28:37 12:33:02 29° 69° (ENE) 12:37:28 435.822/435.867
BEESAT 26 Nov 12:29:09 12:33:11 26° 97° (E) 12:37:10 436.000
PHONESAT 2.4 26 Nov 12:35:02 12:37:42 19° 143° (SE) 12:40:22 2401.200-2431.200
SPROUT 26 Nov 12:35:03 12:38:55 34° 288° (WNW) 12:42:46 437.525
VERMONT LUNAR 26 Nov 12:43:22 12:46:36 32° 147° (SSE) 12:49:51 437.305
DANDE 26 Nov 12:49:04 12:51:54 43° 279° (W) 12:54:26 436.750
HORYU 2 26 Nov 13:02:04 13:03:25 11° 65° (ENE) 13:04:46 437.375
Gurwin Techsat 1B 26 Nov 13:03:29 13:08:16 35° 71° (ENE) 13:13:03 435.225
SO-50 26 Nov 13:07:50 13:12:15 35° 247° (WSW) 13:16:40 436.795
Oscar 19 26 Nov 13:13:21 13:18:00 36° 262° (W) 13:22:42 437.125/150
